2010 EJ104

Japanese version
Home page
Updated on July 3, 2010

---------------------------------------------------------------------

* Profile

Discovery Date March 10, 2010
Magnitude
Discoverer Purple Mountain Observatory, XuYi Station

* Orbital Elements

Epoch 2010 July 23.0 TT = JDT 2455400.5                 MPC
M   1.26783              (2000.0)            P               Q
n   0.00982751     Peri.  177.04117     -0.98659650     -0.14193972
a  21.5860837      Node   353.02911     +0.13276176     -0.41137662
e   0.9011432      Incl.   41.55197     +0.09487705     -0.90034571
P 100.29           H   17.1           G   0.15           U   3

* Magnitudes Graph

        H = 17.1  G = 0.15

---------------------------------------------------------------------

The orbital elements are published on M.P.E.C. 2010-L40.
The magnitudes graphs are made with Comet for Windows.

---------------------------------------------------------------------

Copyright(C) Seiichi Yoshida (comet@aerith.net). All rights reserved.